User: anonymous   Login
Location: Unspecified
(0.0000°N, 0.0000°E)
Time: 03:37:39
(UTC+00:00)
Language:

BREEZE-M R/B - Orbit

View from above orbital plane
View from above orbital plane
View from above satellite
View from above satellite

Ground track
Ground track

The orbit data is extracted from the following two-line orbital elements,

1 39173U 13026B   24194.15395297 -.00000475  00000-0  00000+0 0  9992
2 39173  30.7418   6.8570 7640239  98.0703 345.9021  1.10513656 44855
Epoch (UTC): 12 July 2024 03:41:41
Eccentricity: 0.7640239
inclination: 30.7418°
perigee height: 2947 km
apogee height: 63331 km
right ascension of ascending node: 6.8570°
argument of perigee: 98.0703°
revolutions per day: 1.10513656
mean anomaly at epoch: 345.9021°
orbit number at epoch: 4485

The dashed part of the orbit path shows where the satellite is in the earth's shadow,  

DLR